Pellston, MI

9:02 AM EDT on May 24, 2017 (GMT -0400)
Pellston Regional Airport Of Emmet County

Weather History for KPLN - October, 2013

Change the Weather History Date:

Thursday, October 17, 2013

  Actual Average Record
Temperature  
Mean Temperature 45 °F -  
Max Temperature 52 °F 56 °F 81 °F (1963)
Min Temperature 39 °F 34 °F 18 °F (1977)
Degree Days  
Heating Degree Days 20    
Moisture  
Dew Point 39 °F    
Average Humidity 76    
Maximum Humidity 93    
Minimum Humidity 59    
Precipitation  
Precipitation 0.00 in - - ()
Sea Level Pressure  
Sea Level Pressure 29.82 in    
Wind  
Wind Speed 4 mph (NNW)    
Max Wind Speed 9 mph    
Max Gust Speed -    
Visibility 10 miles    
Events      
Averages and records for this station are not official NWS values.
T = Trace of Precipitation, MM = Missing Value Source: NWS Daily Summary

Daily Weather History Graph

Daily Weather History Graph

Search for Another Location

Airport or City:

Trip Planner

Search our weather history database for the weather conditions in past years. The results will help you decide how hot, cold, wet, or windy it might be!

Date:

Astronomy

Oct. 17, 2013 Rise Set
Actual Time 7:58 AM EDT 6:49 PM EDT
Civil Twilight 7:28 AM EDT 7:19 PM EDT
Nautical Twilight 6:54 AM EDT 7:54 PM EDT
Astronomical Twilight 6:19 AM EDT 8:28 PM EDT
Moon 6:05 PM EDT (10/17) 6:26 AM EDT (10/17)
Length of Visible Light 11h 51m
Length of Day
10h 51m
Waxing Gibbous, 98% of the Moon is Illuminated
Oct 17
Waxing Gibbous
Oct 18
Full
Oct 26
Last Quarter
Nov 3
New
Nov 10
First Quarter

Hourly Weather History & Observations

Time (EDT) Temp. Dew Point Humidity Pressure Visibility Wind Dir Wind Speed Gust Speed Precip Events Conditions
12:54 AM 48.0 °F 42.1 °F 80% 29.86 in 10.0 mi NW 8.1 mph - N/A   Overcast
1:54 AM 48.0 °F 41.0 °F 77% 29.86 in 10.0 mi NW 9.2 mph - N/A   Overcast
2:54 AM 48.0 °F 41.0 °F 77% 29.87 in 10.0 mi NW 6.9 mph - N/A   Overcast
3:54 AM 48.0 °F 39.9 °F 74% 29.86 in 10.0 mi NNW 6.9 mph - 0.00 in   Overcast
4:54 AM 46.9 °F 39.9 °F 77% 29.85 in 10.0 mi WNW 3.5 mph - N/A   Overcast
5:54 AM 46.0 °F 39.9 °F 79% 29.85 in 10.0 mi Calm Calm - N/A   Overcast
6:54 AM 45.0 °F 39.0 °F 80% 29.86 in 10.0 mi Calm Calm - N/A   Overcast
7:54 AM 42.1 °F 39.0 °F 89% 29.86 in 10.0 mi Calm Calm - N/A   Overcast
8:54 AM 39.9 °F 37.9 °F 93% 29.88 in 10.0 mi Calm Calm - N/A   Mostly Cloudy
9:54 AM 45.0 °F 39.9 °F 82% 29.87 in 10.0 mi Calm Calm - N/A   Mostly Cloudy
10:54 AM 48.0 °F 37.9 °F 68% 29.86 in 10.0 mi Calm Calm - N/A   Overcast
11:54 AM 50.0 °F 37.0 °F 61% 29.84 in 10.0 mi Calm Calm - N/A   Overcast
12:54 PM 51.1 °F 37.0 °F 59% 29.82 in 10.0 mi SE 4.6 mph - N/A   Overcast
1:54 PM 51.1 °F 37.0 °F 59% 29.79 in 10.0 mi SSW 6.9 mph - N/A   Overcast
2:54 PM 51.1 °F 37.9 °F 61% 29.78 in 10.0 mi NE 5.8 mph - N/A   Overcast
3:54 PM 51.1 °F 39.0 °F 63% 29.77 in 10.0 mi NNE 3.5 mph - N/A   Mostly Cloudy
4:54 PM 48.9 °F 39.0 °F 69% 29.76 in 10.0 mi North 5.8 mph - N/A   Overcast
5:54 PM 48.9 °F 39.0 °F 69% 29.75 in 10.0 mi North 3.5 mph - N/A   Overcast
6:54 PM 46.9 °F 39.9 °F 77% 29.76 in 10.0 mi NW 3.5 mph - N/A   Overcast
7:54 PM 46.9 °F 39.9 °F 77% 29.77 in 10.0 mi Calm Calm - N/A   Overcast
8:54 PM 45.0 °F 41.0 °F 86% 29.77 in 10.0 mi Calm Calm - N/A   Mostly Cloudy
9:54 PM 43.0 °F 41.0 °F 93% 29.77 in 10.0 mi Calm Calm - N/A   Partly Cloudy
10:54 PM 43.0 °F 39.9 °F 89% 29.77 in 10.0 mi Calm Calm - N/A   Clear
11:54 PM 39.9 °F 37.9 °F 93% 29.77 in 10.0 mi Calm Calm - N/A   Mostly Cloudy